Temperature
17 17 17 17 17 17 17 17 17 17 17 17 17 16 16 16 16 16 15 16 16 16 16 16 16 15 15 15 15 15 15 15 15 15 15 15 15 15
17 17 17 17 17 17 16 16 16 17 17 17 16 16 16 15 15 15 15 15 15 15 15 15 15 15 15 15 15 15 15 15 15 15 15 15 15 14
17 17 17 17 17 16 16 16 16 16 16 16 16 16 15 15 15 15 15 15 15 15 15 15 15 15 15 15 15 15 15 15 14 14 14 14 14 14
16 16 16 16 16 16 16 16 16 16 16 15 16 15 15 15 15 15 15 14 14 15 15 15 15 15 15 15 15 15 14 14 14 14 14 14 14 14
16 16 16 16 16 16 16 16 16 15 15 15 15 15 15 15 15 15 14 14 14 14 15 15 15 15 15 14 14 14 14 14 14 14 14 14 14 14
15 15 15 15 15 16 15 15 15 15 15 15 15 15 15 15 14 14 14 14 14 14 14 14 14 14 14 14 14 14 14 14 14 14 14 14 14 13
15 15 15 15 15 15 15 15 15 15 15 15 15 15 14 14 14 14 14 14 14 14 14 14 14 14 14 14 14 14 14 14 14 13 13 13 13 13
15 15 15 15 15 15 15 15 15 15 15 15 15 14 14 14 14 14 14 14 13 14 13 13 13 13 14 14 14 14 14 14 13 13 13 13 13 13
15 14 14 15 15 15 15 15 15 15 14 14 14 14 14 14 14 14 13 13 13 13 13 13 13 13 13 13 13 13 13 13 13 13 13 13 13 12
14 14 14 14 14 14 14 14 14 14 14 14 14 14 14 14 13 13 13 13 13 13 13 13 13 13 13 13 13 13 13 13 13 13 13 12 12 12
14 14 14 14 14 14 14 14 14 14 14 14 14 14 14 14 13 13 13 13 13 13 13 13 13 13 13 13 13 13 13 13 12 12 12 12 12 12
14 14 14 14 14 14 14 13 13 13 13 13 13 13 13 13 13 13 13 13 13 13 13 12 12 12 12 12 12 12 12 12 12 12 12 12 12 11
14 14 14 14 14 14 13 13 13 13 13 13 13 13 13 13 13 13 12 12 12 12 12 12 12 12 12 12 12 12 12 12 12 11 11 11 11 11
13 13 13 13 14 13 13 13 13 13 13 13 13 13 13 12 13 12 12 12 12 12 12 12 12 12 12 12 12 12 12 11 11 11 11 11 11 11
13 13 13 13 13 13 13 13 12 12 12 12 12 12 12 12 12 12 12 12 11 11 11 11 11 11 11 11 12 11 11 11 11 11 11 11 11 10
13 13 13 13 12 12 12 12 12 12 12 12 12 12 12 12 12 11 11 11 11 11 11 11 11 11 11 11 11 11 11 11 11 11 10 10 10 10
12 13 12 12 12 12 12 12 12 12 12 12 12 11 11 11 11 11 11 11 11 11 11 11 11 11 10 10 11 11 11 11 10 10 10 10 10 10
12 12 12 12 12 12 12 12 12 11 11 11 11 11 11 11 11 11 11 11 11 11 10 10 10 10 10 10 10 10 10 10 10 10 10 10 10 10
12 12 12 11 11 11 11 11 11 11 11 11 11 11 11 11 10 10 10 10 10 10 10 10 10 10 10 10 10 10 10 10 10 10 10 10 10 10
11 11 11 11 11 11 11 11 11 11 10 10 10 10 10 10 10 10 10 10 10 10 10 10 10 10 10 10 10 9 9 9 9 9 10 10 10 10
11 11 11 10 10 10 10 10 10 10 10 10 10 9 9 9 9 9 9 9 9 9 9 9 9 9 9 9 9 9 9 9 9 9 9 9 9 10
10 10 10 10 10 10 10 10 10 9 9 9 9 9 9 9 9 9 9 9 9 9 9 9 9 9 9 9 9 9 9 9 9 9 9 9 9 9
10 10 10 10 10 9 9 9 9 9 9 9 9 9 9 9 8 8 8 8 8 8 8 8 8 8 8 9 9 9 9 9 9 9 9 9 9 9
Wind_Speed
5 5 5 4 4 4 5 5 5 5 4 3 2 2 2 2 1 3 4 5 6 6 5 5 5 5 6 6 6 6 6 6 5 6 6 6 6 7
5 5 5 4 4 4 4 4 5 6 5 3 2 2 1 2 3 3 4 5 7 7 6 6 6 6 6 6 6 6 6 5 5 5 5 5 5 5
6 6 5 5 5 4 4 4 4 5 5 4 3 2 2 3 2 3 4 4 5 8 8 7 6 6 6 6 5 6 6 6 5 5 4 4 4 5
6 6 6 5 5 5 4 5 4 5 5 5 4 3 4 4 3 3 3 4 4 7 9 8 7 6 6 6 6 6 6 6 5 5 4 4 5 5
6 7 7 6 6 5 5 5 5 5 5 5 5 3 3 3 3 4 4 3 4 5 9 9 8 8 7 6 6 6 6 6 6 6 6 6 5 5
7 7 7 6 6 6 5 6 5 5 5 5 5 4 3 3 3 4 3 3 3 3 4 6 8 10 9 8 8 8 7 7 7 6 6 6 6 6
6 7 7 5 5 5 5 5 5 5 5 5 5 4 4 3 4 4 4 3 4 3 3 4 5 6 7 10 10 9 8 8 7 7 7 7 7 6
6 7 7 6 5 6 5 5 6 7 6 6 5 5 5 5 4 5 4 4 4 3 4 4 4 4 4 5 7 9 9 8 8 7 7 7 7 7
6 6 6 4 4 5 5 7 7 7 7 7 6 6 6 5 6 6 5 5 5 3 4 5 4 5 4 4 8 9 9 9 8 8 8 8 8 8
6 6 5 5 4 4 5 5 6 6 6 6 6 7 6 5 5 6 6 6 5 3 4 5 5 5 4 4 8 10 11 10 9 9 8 8 9 9
4 4 5 5 2 3 5 5 5 4 4 4 5 5 5 6 6 4 5 4 4 4 3 4 4 4 4 5 7 11 12 11 10 9 9 9 9 9
3 3 2 2 2 3 5 5 5 5 4 3 4 5 6 6 7 6 6 5 4 4 3 4 4 3 3 4 4 6 8 10 12 11 10 9 8 7
3 2 1 1 1 3 5 4 4 5 4 3 3 3 3 3 4 5 4 5 5 4 2 3 3 4 4 3 3 4 4 4 6 8 10 10 10 8
2 2 0 1 2 3 3 2 5 5 3 3 2 3 3 3 3 3 3 4 4 5 4 4 3 4 4 4 3 3 3 3 4 4 5 9 11 11
2 1 1 3 5 4 3 5 5 3 2 2 2 3 3 3 3 2 2 2 3 3 3 4 4 3 4 4 3 3 3 3 3 3 3 4 5 5
2 2 4 5 4 2 3 2 2 1 2 2 2 2 2 2 2 2 2 2 2 2 1 3 3 4 4 4 3 3 3 3 3 3 4 4 5 6
3 2 1 1 1 1 1 1 1 1 1 2 2 1 1 1 2 2 2 2 2 2 2 1 2 2 3 3 3 3 4 4 3 3 4 5 4 5
2 2 1 1 1 1 1 1 1 1 1 2 2 1 2 2 2 2 2 2 2 2 2 2 2 2 3 2 2 4 4 4 3 3 4 5 5 4
3 2 1 1 1 1 1 1 1 1 1 1 1 1 1 2 2 2 2 2 2 3 3 2 2 3 4 3 2 3 4 4 3 4 4 5 5 4
2 1 1 1 1 1 1 1 1 0 0 1 1 1 1 1 2 2 2 3 3 3 3 3 3 3 4 5 4 3 5 5 4 4 4 4 4 2
1 1 1 1 0 1 1 1 1 1 1 1 1 1 1 2 2 2 3 3 4 4 4 3 3 3 4 4 4 4 3 4 3 4 5 5 5 4
1 1 1 1 1 1 1 1 1 1 1 1 1 2 2 2 2 3 3 3 4 4 4 4 3 3 4 5 5 4 4 3 4 5 5 6 5 5
1 1 1 1 1 1 1 1 2 1 1 1 1 2 2 2 2 3 3 3 3 4 4 4 3 3 4 5 5 5 5 5 4 4 5 6 9 8
Wind_Direction
252 248 250 251 249 252 252 250 255 263 267 251 248 234 234 216 175 220 214 180 190 203 208 211 215 216 214 211 211 213 212 214 216 217 222 226 227 226
251 255 256 253 250 248 248 248 247 255 267 267 262 260 268 251 194 223 220 188 192 200 206 208 211 214 215 213 210 206 203 203 209 214 217 216 220 225
251 245 244 252 257 255 250 247 242 241 250 264 257 239 235 253 245 237 228 221 198 188 199 204 206 205 202 202 199 196 197 201 207 211 209 208 211 216
252 252 250 244 245 253 254 250 243 238 241 254 259 247 236 232 236 245 241 231 231 175 184 192 197 199 197 198 198 198 200 202 205 205 203 205 210 214
255 251 250 245 244 246 248 247 244 240 243 250 260 259 252 237 226 233 235 237 239 189 182 188 194 196 196 196 197 199 201 203 209 213 212 213 216 217
252 250 247 242 239 240 238 238 241 242 238 242 251 256 252 241 225 231 235 232 235 225 203 196 190 194 199 202 203 201 202 203 205 209 211 213 215 216
251 251 248 240 237 235 243 238 238 241 243 245 250 252 247 245 236 236 241 242 230 228 227 219 201 206 203 204 206 204 203 204 205 208 209 210 212 214
252 251 249 230 217 217 225 234 239 238 243 247 249 254 252 245 242 243 236 234 244 232 234 236 224 227 220 209 189 190 200 205 206 209 209 209 210 211
255 252 254 250 225 233 223 223 231 235 237 241 243 251 258 252 245 243 237 242 246 237 231 242 231 235 228 194 177 190 199 204 209 213 214 214 212 214
254 246 243 248 248 250 241 239 242 241 240 241 248 255 259 267 253 243 240 238 245 234 226 244 238 235 231 210 183 193 201 207 210 212 214 216 217 217
257 250 240 235 239 259 242 243 248 249 230 221 235 247 256 256 254 246 243 239 250 251 238 248 248 240 235 225 193 189 197 201 205 209 212 216 220 218
248 239 210 237 247 244 242 244 249 257 261 253 230 230 238 232 222 231 242 243 252 258 238 241 248 247 247 230 215 200 201 199 201 204 208 212 218 222
278 272 253 134 226 250 258 250 253 257 246 247 250 250 249 247 241 237 242 244 251 261 248 238 256 251 250 245 236 223 215 211 206 207 205 204 206 220
282 293 283 148 213 229 239 246 249 248 243 250 253 257 259 258 258 256 249 249 258 258 255 244 250 254 255 248 254 245 232 220 221 224 214 197 207 215
288 336 284 228 221 207 194 223 235 240 243 251 266 275 276 271 266 261 238 224 245 252 236 235 248 252 252 254 259 257 250 243 231 232 223 220 223 221
288 214 206 217 227 220 196 212 235 236 245 251 271 287 297 296 276 285 276 257 267 282 235 238 244 247 246 254 258 259 258 248 235 240 242 236 229 228
280 250 208 188 224 218 227 232 234 225 238 254 261 273 284 286 294 297 287 281 276 280 292 269 238 231 248 265 259 257 259 261 256 248 253 249 238 230
247 214 205 230 252 248 246 236 225 232 256 258 259 269 274 275 283 290 289 291 292 295 287 284 279 257 242 239 266 265 262 261 257 242 251 252 250 246
222 215 218 235 252 263 265 275 278 263 266 268 266 279 290 285 284 289 291 287 285 280 279 275 271 266 266 270 241 227 265 269 264 254 250 256 260 260
233 228 234 249 260 264 268 288 293 298 267 272 273 269 280 280 286 292 289 292 289 288 285 277 276 283 281 286 287 272 240 250 256 261 263 265 269 257
310 272 272 267 288 294 287 278 283 277 274 269 265 263 266 273 281 285 282 276 276 276 279 282 294 281 272 275 271 266 256 218 243 267 268 266 265 265
331 338 343 327 311 300 282 258 240 236 239 254 279 282 284 278 281 286 284 279 275 279 283 282 271 260 266 271 273 273 268 246 215 222 243 258 265 269
322 325 340 328 309 292 283 256 245 245 250 275 287 290 294 292 285 282 285 289 293 292 291 288 285 278 271 270 273 273 267 261 255 249 243 223 219 231
Height
1529 1529 1529 1528 1528 1528 1528 1528 1529 1527 1527 1527 1527 1526 1526 1525 1524 1524 1523 1523 1523 1522 1522 1522 1522 1522 1523 1523 1524 1524 1525 1525 1526 1526 1527 1528 1528 1529
1525 1525 1525 1526 1525 1525 1524 1524 1525 1525 1525 1524 1524 1524 1523 1523 1523 1522 1521 1521 1520 1520 1520 1520 1520 1520 1521 1521 1522 1522 1523 1523 1524 1524 1524 1525 1525 1526
1522 1522 1522 1522 1522 1522 1522 1521 1521 1522 1522 1522 1522 1521 1520 1520 1520 1519 1519 1518 1518 1518 1518 1518 1518 1518 1519 1519 1519 1520 1520 1521 1521 1521 1521 1522 1522 1522
1518 1518 1518 1519 1518 1519 1519 1519 1519 1519 1519 1518 1518 1518 1518 1517 1517 1516 1516 1516 1516 1516 1515 1515 1515 1516 1516 1516 1517 1517 1518 1518 1518 1518 1518 1519 1519 1519
1515 1515 1515 1515 1515 1515 1515 1515 1516 1516 1516 1516 1515 1515 1515 1515 1514 1514 1514 1513 1513 1513 1512 1512 1512 1513 1513 1513 1514 1514 1515 1515 1515 1515 1515 1516 1516 1516
1511 1511 1511 1511 1511 1511 1511 1512 1512 1512 1512 1512 1512 1512 1512 1511 1511 1511 1511 1510 1510 1511 1510 1510 1509 1509 1510 1510 1511 1511 1511 1512 1512 1512 1512 1512 1513 1513
1507 1507 1507 1507 1507 1507 1508 1508 1508 1509 1509 1509 1509 1509 1509 1508 1508 1508 1507 1507 1507 1507 1507 1507 1507 1507 1507 1507 1507 1507 1508 1508 1508 1508 1509 1509 1509 1510
1503 1503 1503 1503 1503 1504 1504 1505 1505 1505 1505 1506 1505 1505 1505 1505 1505 1505 1505 1504 1504 1504 1504 1504 1504 1504 1504 1504 1503 1504 1504 1504 1505 1505 1505 1506 1506 1506
1499 1499 1500 1500 1500 1500 1500 1501 1501 1501 1502 1502 1502 1501 1501 1501 1501 1501 1501 1501 1500 1501 1501 1501 1501 1501 1501 1500 1500 1500 1500 1500 1501 1501 1502 1502 1502 1503
1494 1494 1495 1495 1496 1496 1497 1497 1497 1498 1498 1498 1497 1497 1498 1498 1497 1498 1497 1497 1497 1497 1497 1497 1497 1497 1497 1497 1496 1496 1496 1496 1497 1497 1498 1498 1499 1499
1490 1491 1491 1492 1492 1493 1493 1493 1494 1494 1494 1494 1494 1494 1494 1494 1494 1495 1495 1495 1494 1494 1494 1494 1494 1494 1494 1493 1493 1492 1492 1493 1493 1494 1494 1495 1495 1495
1488 1488 1488 1489 1489 1489 1490 1490 1490 1490 1490 1491 1491 1491 1491 1491 1491 1491 1491 1491 1491 1491 1490 1490 1491 1491 1491 1490 1490 1490 1489 1489 1489 1490 1490 1491 1491 1492
1487 1486 1486 1486 1486 1486 1486 1487 1487 1487 1487 1488 1488 1488 1488 1487 1487 1488 1487 1488 1488 1487 1488 1487 1487 1487 1487 1487 1486 1487 1486 1486 1486 1486 1487 1487 1488 1489
1484 1484 1483 1483 1483 1483 1484 1484 1484 1484 1485 1485 1485 1485 1485 1484 1484 1484 1484 1483 1483 1484 1483 1483 1483 1483 1483 1483 1483 1483 1483 1483 1483 1483 1484 1484 1485 1485
1482 1481 1481 1481 1481 1481 1481 1481 1482 1482 1482 1482 1482 1482 1482 1482 1482 1481 1480 1480 1480 1480 1480 1479 1480 1480 1480 1480 1480 1480 1480 1480 1480 1480 1480 1481 1481 1482
1480 1479 1479 1479 1479 1479 1479 1479 1480 1480 1480 1480 1480 1480 1480 1480 1479 1479 1478 1477 1477 1477 1477 1476 1476 1476 1477 1477 1478 1477 1477 1477 1477 1477 1477 1477 1478 1478
1477 1477 1478 1477 1477 1477 1477 1477 1477 1478 1478 1478 1478 1478 1477 1477 1477 1476 1475 1475 1474 1474 1474 1474 1474 1473 1474 1474 1474 1474 1474 1474 1474 1474 1473 1474 1474 1474
1475 1475 1475 1476 1475 1475 1475 1475 1475 1475 1475 1476 1475 1475 1475 1475 1474 1474 1473 1473 1472 1472 1472 1472 1471 1471 1471 1471 1471 1471 1471 1471 1471 1470 1470 1471 1471 1471
1473 1473 1474 1474 1474 1474 1473 1473 1473 1473 1473 1473 1473 1473 1472 1472 1472 1472 1471 1471 1470 1470 1470 1470 1469 1469 1468 1468 1467 1468 1468 1468 1468 1467 1468 1468 1467 1467
1471 1471 1471 1471 1471 1471 1471 1471 1470 1470 1470 1471 1471 1471 1470 1470 1470 1470 1469 1469 1468 1468 1467 1467 1467 1466 1466 1466 1465 1465 1464 1464 1465 1464 1465 1464 1464 1464
1469 1469 1469 1469 1469 1469 1469 1468 1468 1468 1468 1468 1469 1468 1468 1468 1468 1468 1468 1467 1466 1466 1465 1464 1464 1464 1463 1463 1463 1462 1462 1461 1461 1461 1462 1462 1461 1461
1467 1467 1466 1466 1467 1467 1466 1466 1466 1467 1467 1467 1467 1467 1467 1466 1466 1466 1465 1465 1464 1464 1463 1462 1461 1461 1461 1461 1460 1460 1459 1459 1459 1458 1458 1459 1458 1458
1466 1465 1464 1464 1465 1464 1464 1464 1465 1465 1465 1465 1465 1465 1465 1464 1464 1463 1463 1462 1462 1461 1461 1460 1460 1459 1459 1459 1458 1457 1457 1457 1456 1456 1456 1455 1455 1455